Location: Unspecified
(49.9820°N, 20.4363°E)
Time: 13:40:12
(UTC+02:00)

ISS - Pass Details

Date: 24 May 2018
Orbit: 402 x 407 km, 51.6° (Epoch: 20 May)

Event Time Altitude Azimuth Distance (km) Brightness Sun altitude
Rises 21:16:07 0° 236° (SW) 2,313 0.2 -6.6°
Reaches altitude 10° 21:18:12 10° 231° (SW) 1,456 -0.9 -6.9°
Maximum altitude 21:21:23 52° 155° (SSE) 507 -3.7 -7.2°
Drops below altitude 10° 21:24:35 10° 77° (ENE) 1,460 -1.3 -7.6°
Sets 21:26:42 0° 73° (ENE) 2,321 -0.2 -7.8°
